Regional Weather Roundup
Issued by NWS

Home | Current Version | Previous Version | Text Only | Print | Product List | Glossary Off
Versions: 1 2 3 4 5 6 7 8 9 10 11 12 13 14 15 16 17 18 19 20 21 22 23 24 25 26 27 28 29 30 31 32 33 34 35 36 37 38 39 40 41 42 43 44 45 46 47 48 49 50

000
ASUS42 KTBW 211917
RWRFL
FLORIDA REGIONAL WEATHER ROUNDUP
NATIONAL WEATHER SERVICE TAMPA BAY RUSKIN FL
300 PM EDT THU SEP 21 2017

NOTE: "FAIR" INDICATES FEW OR NO CLOUDS BELOW 12,000 FEET WITH NO
SIGNIFICANT WEATHER AND/OR OBSTRUCTIONS TO VISIBILITY.

FLZ001>010-012>015-112-114-115-212000-
PANHANDLE FLORIDA

CITY           SKY/WX    TMP DP  RH WIND       PRES   REMARKS
PENSACOLA      PTSUNNY   85  73  67 CALM      29.99F
PENSACOLA NAS  CLOUDY    78  70  76 CALM      29.99F
MILTON NAS     MOSUNNY   89  71  55 CALM      29.99  HX  95
CRESTVIEW      MOSUNNY   90  68  48 CALM      30.00F
DUKE FIELD     PTSUNNY   83  72  70 S12       29.98F
VALPARAISO     PTSUNNY   81  70  69 CALM      29.99F
MARY ESTHER    MOSUNNY   77  66  68 CALM      29.98
PANAMA CITY    FAIR      86  72  62 SW6       29.97F
TYNDALL AFB    SUNNY     88  74  63 SW9       29.97F HX  96
APALACHICOLA   CLOUDY    84  77  79 SW7       29.98F

STATION/POSITION SKY/WX   TEMP    WIND        PRES    WAVE   SWELL
                          AIR SEA DIR/SP/G            HT/PER HT/PER
                          (F)     (DEG/KT/KT) (MB)    (FT/S) (FT/S)
30.1N   87.6W              82 85  140/  4/  4 1015.7F   1
29.2N   88.2W              82 85   70/  6/  8 1015.8
28.8N   86.0W              82 84   80/  6/  8 1015.3F   1
PANAMA CITY BEAC           83     210/  6/ 10 1015.7F
TOWER C                    84                 1015.7F
28.5N   84.5W              82 84  100/  4/  6 1015.2F   1

$$
FLZ011-016>038-118-127-128-134-139-239-212000-
NORTH FLORIDA

CITY           SKY/WX    TMP DP  RH WIND       PRES   REMARKS
MARIANNA       MOSUNNY   92  71  50 N6        29.96F HX  98
TALLAHASSEE    CLOUDY    84  73  69 W12       29.98F THUNDER
LIVE OAK       PTSUNNY   86  72  62 SE6G13    29.98F HAZE
CROSS CITY     MOSUNNY   89  70  54 NE5       30.01F
LAKE CITY      FAIR      86  70  58 E5        29.98F
GAINESVILLE    MOSUNNY   90  69  50 E7        30.00F
WILLISTON      SUNNY     91  70  49 NE6       29.98F HX  97
PALATKA        FAIR      90  72  55 NE10      29.99F HX  96
MAYPORT NAS    CLOUDY    85  77  77 NE9       30.00F HX  95
JACKSONVILLE   CLOUDY    87  73  62 E12       29.99F
JAX NAS        PTSUNNY   89  70  53 E12       29.99F
JAX CECIL      MOSUNNY   86  72  62 NE6       29.98F
FERNANDINA BEA FAIR      82  72  69 MISG      30.00F
ST AUGUSTINE   PTSUNNY   83  73  72 NE10      30.01F
PALM COAST     MOSUNNY   86 N/A N/A NE8       30.00F

STATION/POSITION SKY/WX   TEMP    WIND        PRES    WAVE   SWELL
                          AIR SEA DIR/SP/G            HT/PER HT/PER
                          (F)     (DEG/KT/KT) (MB)    (FT/S) (FT/S)
SHELL POINT      NOT AVBL
KEATON BEACH               84     290/  9/ 11 1014.7F
CEDAR KEY                  84     250/  5/  7 1015.2F
FERNANDINA                 84 83   80/  5/  9 1016.8F
30.7N   81.3W                 85                N/A     2/12   2/12
MAYPORT                    81 83   70/  9/ 10 1016.7F
31.4N   80.9W              80 83   20/  4/  6 1016.4F   2/11   2/11
ST AUGUSTINE               81 84   40/  8/  9 1016.3F

$$
FLZ040-043>046-052-053-057-058-063-144-212000-
INTERIOR CENTRAL FLORIDA

CITY           SKY/WX    TMP DP  RH WIND       PRES   REMARKS
OCALA          MOSUNNY   89  70  53 VRB7      29.98F
THE VILLAGES     N/A     88  70  55 MISG      29.87F
LEESBURG       MOSUNNY   90  67  46 NE10      29.98F
SANFORD        MOSUNNY   89  68  49 NE14G20   29.97F
ORLANDO EXEC   SUNNY     89  68  49 E12       29.97F
ORLANDO INTL   PTSUNNY   87  70  56 E12       29.97F
KISSIMMEE      MOSUNNY   87  69  54 E9        29.97
WINTER HAVEN   PTSUNNY   89  66  46 NE12      29.97F
LAKELAND       MOSUNNY   88  66  48 NE7       29.97F
SEBRING        FAIR      92  64  39 NE10      29.95F
OKEECHOBEE     MOSUNNY   90  70  51 NE10      29.94F HX  95

$$
FLZ041-047-054-059-064-141-147-212000-
EAST CENTRAL FLORIDA

CITY           SKY/WX    TMP DP  RH WIND       PRES   REMARKS
ORMOND BEACH   MOSUNNY   84  72  65 NE13G18   29.99F
DAYTONA BEACH  MOSUNNY   84  71  65 NE12      29.99F
DELAND         MOSUNNY   86  68  54 E10       29.98F
JFK SPACE CTR  MOSUNNY   86  75  69 NE10      29.97F
TITUSVILLE     MOSUNNY   90  68  48 NE14      29.99F
CAPE CANAVERAL SUNNY     87  70  58 N13       29.96F
PATRICK AFB    MOSUNNY   86  75  70 NE9       29.96F HX  95
MELBOURNE      MOSUNNY   88  71  57 N13       29.97F
VERO BEACH     MOSUNNY   86  71  60 N15       29.96F
FT PIERCE      PTSUNNY   85  72  65 NE9G21    29.96F

STATION/POSITION SKY/WX   TEMP    WIND        PRES    WAVE   SWELL
                          AIR SEA DIR/SP/G            HT/PER HT/PER
                          (F)     (DEG/KT/KT) (MB)    (FT/S) (FT/S)
28.5N   80.2W              83 85   10/ 10/ 16 1016.1F   4/12   3/12
28.9N   78.5W                 85   50/ 12/ 14 1015.5F   4/11   3/11
TRIDENT PIER               86 83   10/ 13/ 17 1016.7F
28.4N   80.5W                 83                N/A     2/11   2/11
27.5N   80.2W                 83                N/A     4/12   2/12

$$
FLZ050-056-061-142-242-148-248-149-249-151-251-155-255-
160-260-212000-
WEST CENTRAL FLORIDA

CITY           SKY/WX    TMP DP  RH WIND       PRES   REMARKS
CRYSTAL RIVER  FAIR     N/A N/A N/A NE7       29.97F
INVERNESS      PTSUNNY   88  72  58 E8        29.98F HAZE
BROOKSVILLE    SUNNY     92  67  43 NE8       29.97F HX  95
CLEARWATER AIR FAIR      88  64  45 E8        29.96F
ST PETE CLEARW MOSUNNY   92  68  45 VRB5      29.96F HX  96
TAMPA INTL     MOSUNNY   92  66  42 E6        29.96F
TAMPA EXEC     MOSUNNY   95  68  41 NE3       29.96F HX  99
PLANT CITY     MOSUNNY   91  70  49 NE8       29.98F HX  97
MACDILL AFB    SUNNY     93  72  51 NE8       29.95F HX 100
PETER O KNIGHT MOSUNNY   93  72  49 NE9       29.96F HX 100
ST PETERSBURG  SUNNY     90  68  48 E5        29.94F
SARASOTA       MOSUNNY   90  68  48 E10       29.93F
VENICE         FAIR      90  72  55 NE7       29.95F HX  96

STATION/POSITION SKY/WX   TEMP    WIND        PRES    WAVE   SWELL
                          AIR SEA DIR/SP/G            HT/PER HT/PER
                          (F)     (DEG/KT/KT) (MB)    (FT/S) (FT/S)
27.3N   84.2W                 84                N/A     2/ 4
CLEARWATER BEACH           83 84  320/ 11/ 13 1014.8F
MIDDLE TAMPA BAY           84     350/  5/  6 1014.7F
VENICE                     89 84   40/  6/ 10 1013.8F

$$
FLZ066-069-070-075>078-162-262-165-265-212000-
SOUTHWEST FLORIDA AND KEYS

CITY           SKY/WX    TMP DP  RH WIND       PRES   REMARKS
PUNTA GORDA    MOSUNNY   91  70  49 N8        29.95F HX  96
FT MYERS       MOSUNNY   89  74  60 NE8       29.92F HX  98
SOUTHWEST INTL MOSUNNY   91  70  49 NE12G17   29.92F HX  96
NAPLES         PTSUNNY   87  75  67 W7        29.92F HX  96
IMMOKALEE      FAIR      90  73  58 NE9G16    29.93F HX  98
MARATHON       SUNNY     91  69  48 NE7       29.91F HX  96
KEY WEST NAS   MOSUNNY  102  77  45 MISG      29.92F HX 118
KEY WEST INTL    N/A     89  75  63 N8        29.93F HX  99

STATION/POSITION SKY/WX   TEMP    WIND        PRES    WAVE   SWELL
                          AIR SEA DIR/SP/G            HT/PER HT/PER
                          (F)     (DEG/KT/KT) (MB)    (FT/S) (FT/S)
NAPLES           NOT AVBL
DRY TORTUGAS               85      90/  7/  8 1013.7F
SAND KEY                   84                 1014.1F
MOLASSES REEF              84 85   20/  1/  2 1013.8

$$
FLZ067-068-071>074-168-172>174-212000-
SOUTHEAST FLORIDA

CITY           SKY/WX    TMP DP  RH WIND       PRES   REMARKS
W PALM BEACH   MOSUNNY   84  73  69 NE14      29.94F
BOCA RATON     MOSUNNY  N/A N/A N/A NE16      29.93F
FT LAUDER-EXEC LGT RAIN  80  73  79 W12       29.93F
FT LAUDERDALE  PTSUNNY   87  77  72 NE12      29.92F HX  99
POMPANO BEACH  MOSUNNY   87  75  67 N14G21    29.93F HX  96
PEMBROKE PINES MOSUNNY   87  75  67 E7        29.94F HX  96
OPA LOCKA      CLOUDY    79  79 100 S6        29.93F
MIAMI          LGT RAIN  76  75  97 E3        29.93F
WEST KENDALL   CLOUDY    78  75  90 NE9       29.92F
HOMESTEAD      DRIZZLE   82  72  69 N14       29.92S

STATION/POSITION SKY/WX   TEMP    WIND        PRES    WAVE   SWELL
                          AIR SEA DIR/SP/G            HT/PER HT/PER
                          (F)     (DEG/KT/KT) (MB)    (FT/S) (FT/S)
PORT EVERGLADES            85      50/  9/ 12 1013.4F
VIRGINIA KEY               82 86  290/  7/ 12 1013.6R
LAKE WORTH                         20/ 15/ 17   N/A
FOWEY ROCKS                84 86   10/  8/  9 1014.1S
SETTLEMENT POINT           85      40/  6/  6 1014.0F

$$




USA.gov is the U.S. government's official web portal to all federal, state and local government web resources and services.